Location: Monroe
(41.9160°N, 83.3980°W)
Time: 18:21:30
(UTC-04:00)

ISS - All Passes

Search period start: 24 July 2016 00:00
Search period end: 03 August 2016 00:00
Orbit: 401 x 404 km, 51.6° (Epoch: 24 July)

Date Brightness Start Highest point End Pass type
(mag) Time Alt. Az. Time Alt. Az. Time Alt. Az.
24 Jul - 00:07:40 10° WSW 00:10:53 69° NW 00:14:09 10° NE visible
24 Jul - 01:45:23 10° WNW 01:47:47 19° NNW 01:50:12 10° NNE visible
24 Jul - 03:23:05 10° NNW 03:25:08 15° N 03:27:12 10° NE visible
24 Jul - 04:59:14 10° NW 05:02:16 35° NNE 05:05:18 10° E visible
24 Jul - 06:35:44 10° WNW 06:38:40 31° SW 06:41:35 10° SSE daylight
24 Jul - 23:14:47 10° SW 23:18:00 62° SE 23:21:12 10° ENE night (unlit)
25 Jul - 00:51:54 10° WNW 00:54:38 24° NNW 00:57:23 10° NE visible
25 Jul - 02:29:58 10° NW 02:31:55 15° N 02:33:53 10° NE visible
25 Jul - 04:06:28 10° NW 04:09:12 24° NNE 04:11:56 10° ENE visible
25 Jul - 05:42:37 10° WNW 05:45:51 62° SW 05:49:03 10° SE visible
25 Jul - 22:22:15 10° SSW 22:25:10 31° SE 22:28:06 10° ENE visible
25 Jul - 23:58:32 10° W 00:01:34 35° NNW 00:04:36 10° NE visible
26 Jul - 01:36:38 10° NW 01:38:42 15° N 01:40:45 10° NNE visible
26 Jul - 03:13:39 10° NNW 03:16:03 19° NNE 03:18:27 10° ENE visible
26 Jul - 04:49:41 10° NW 04:52:57 69° NNE 04:56:10 10° ESE visible
26 Jul - 06:27:14 10° W 06:29:00 14° SW 06:30:45 10° SSW daylight
26 Jul - 21:30:17 10° S 21:32:25 16° SE 21:34:34 10° E visible
26 Jul - 23:05:20 10° WSW 23:08:33 58° NNW 23:11:47 10° NE visible
27 Jul - 00:43:10 10° WNW 00:45:29 18° NNW 00:47:49 10° NNE visible
27 Jul - 02:20:44 10° NNW 02:22:52 16° N 02:24:59 10° NE visible
27 Jul - 03:56:51 10° NW 03:59:57 39° NNE 04:03:02 10° E visible
27 Jul - 05:33:29 10° WNW 05:36:16 26° SW 05:39:02 10° SSE visible
27 Jul - 22:12:22 10° SW 22:15:36 75° SE 22:18:51 10° ENE visible
27 Jul - 23:49:41 10° WNW 23:52:20 22° NNW 23:54:59 10° NE visible
28 Jul - 01:27:40 10° NW 01:29:38 15° N 01:31:36 10° NE visible
28 Jul - 03:04:03 10° NW 03:06:53 26° NNE 03:09:42 10° E visible
28 Jul - 04:40:17 10° WNW 04:43:28 51° SW 04:46:37 10° SE visible
28 Jul - 21:19:43 10° SSW 21:22:45 37° SE 21:25:48 10° ENE visible
28 Jul - 22:56:15 10° W 22:59:13 31° NNW 23:02:11 10° NE visible
29 Jul - 00:34:23 10° NW 00:36:24 15° N 00:38:25 10° NNE visible
29 Jul - 02:11:14 10° NW 02:13:44 20° NNE 02:16:14 10° ENE visible
29 Jul - 03:47:18 10° NW 03:50:34 82° NE 03:53:49 10° ESE night (unlit)
29 Jul - 05:25:23 10° WSW 05:26:33 11° SW 05:27:42 10° SSW visible
29 Jul - 20:27:32 10° S 20:29:58 20° SE 20:32:25 10° E daylight
29 Jul - 22:03:00 10° WSW 22:06:11 50° NNW 22:09:22 10° NE visible
29 Jul - 23:40:56 10° NW 23:43:11 17° N 23:45:25 10° NNE visible
30 Jul - 01:18:22 10° NNW 01:20:33 16° N 01:22:44 10° NE visible
30 Jul - 02:54:26 10° NW 02:57:36 45° NNE 03:00:44 10° ESE night (unlit)
30 Jul - 04:31:15 10° W 04:33:50 22° SW 04:36:24 10° S night (unlit)
30 Jul - 19:36:51 10° SE 19:37:16 10° SE 19:37:42 10° ESE daylight
30 Jul - 21:09:57 10° SW 21:13:12 89° SE 21:16:28 10° NE daylight
30 Jul - 22:47:26 10° WNW 22:49:59 21° NNW 22:52:34 10° NE visible
31 Jul - 00:25:20 10° NW 00:27:19 15° N 00:29:19 10° NE visible
31 Jul - 02:01:37 10° NW 02:04:31 29° NNE 02:07:26 10° E visible
31 Jul - 03:37:56 10° WNW 03:41:02 42° SW 03:44:07 10° SSE night (unlit)
31 Jul - 20:17:12 10° SSW 20:20:19 45° SE 20:23:27 10° ENE daylight
31 Jul - 21:53:59 10° W 21:56:51 28° NNW 21:59:44 10° NE visible
31 Jul - 23:32:06 10° NW 23:34:05 15° N 23:36:03 10° NE visible
01 Aug - 01:08:48 10° NW 01:11:24 21° NNE 01:13:59 10° ENE visible
01 Aug - 02:44:53 10° WNW 02:48:09 84° SW 02:51:24 10° SE night (unlit)
01 Aug - 19:24:51 10° S 19:27:30 23° SE 19:30:10 10° E daylight
01 Aug - 21:00:39 10° WSW 21:03:47 43° NNW 21:06:55 10° NE daylight
01 Aug - 22:38:40 10° NW 22:40:50 16° N 22:43:00 10° NNE visible
02 Aug - 00:15:56 10° NNW 00:18:12 17° NNE 00:20:28 10° NE visible
02 Aug - 01:52:00 10° NW 01:55:12 53° NNE 01:58:23 10° ESE visible
02 Aug - 03:29:01 10° W 03:31:22 18° SW 03:33:41 10° S night (unlit)
02 Aug - 18:33:21 10° SSE 18:34:46 12° SE 18:36:13 10° ESE daylight
02 Aug - 20:07:32 10° WSW 20:10:47 77° NW 20:14:02 10° NE daylight
02 Aug - 21:45:10 10° WNW 21:47:38 19° NNW 21:50:06 10° NE visible
02 Aug - 23:22:57 10° NNW 23:24:58 15° N 23:27:00 10° NE visible
